Weather History for Ardmore Downtown, OK

Change the Weather History Date:

Sunday, March 9, 2014

  Actual Average (KADM) Record (KADM)
Temperature  
Mean Temperature 48 °F -  
Max Temperature 60 °F 58 °F 80 °F (2009)
Min Temperature 35 °F 40 °F 24 °F (1998)
Degree Days  
Heating Degree Days 18    
Moisture  
Dew Point 34 °F    
Average Humidity 63    
Maximum Humidity 87    
Minimum Humidity 36    
Precipitation  
Precipitation 0.00 in - - ()
Sea Level Pressure  
Sea Level Pressure 30.26 in    
Wind  
Wind Speed 4 mph (North)    
Max Wind Speed 7 mph    
Max Gust Speed -    
Visibility 10 miles    
Events      
Averages and records for this station are not official NWS values.
T = Trace of Precipitation, MM = Missing Value Source: NWS Daily Summary

Daily Weather History Graph

Daily Weather History Graph

Search for Another Location

Airport:

Trip Planner

Search our weather history database for the weather conditions in past years. The results will help you decide how hot, cold, wet, or windy it might be!

Date:

Astronomy

Mar. 09, 2014 Rise Set
Actual Time 7:46 AM CDT 7:31 PM CDT
Civil Twilight 7:21 AM CDT 7:56 PM CDT
Nautical Twilight 6:52 AM CDT 8:25 PM CDT
Astronomical Twilight 6:23 AM CDT 8:54 PM CDT
Moon 1:36 PM CDT (3/9) 3:02 AM CDT (3/9)
Length of Visible Light 12h 34m
Length of Day
11h 44m
First Quarter, 61% of the Moon is Illuminated
Mar 9
First Quarter
Mar 16
Full
Mar 23
Last Quarter
Mar 30
New
Apr 7
First Quarter

Hourly Weather History & Observations

Time (CDT) Temp. Windchill Dew Point Humidity Pressure Visibility Wind Dir Wind Speed Gust Speed Precip Events Conditions
12:15 AM 35.6 °F 30.7 °F 32.0 °F 87% 30.32 in 10.0 mi North 5.8 mph - N/A   Unknown
12:35 AM 35.6 °F 31.7 °F 32.0 °F 87% 30.32 in 10.0 mi North 4.6 mph - N/A   Unknown
12:55 AM 35.6 °F 30.7 °F 32.0 °F 87% 30.32 in 10.0 mi North 5.8 mph - N/A   Unknown
1:15 AM 35.6 °F 30.7 °F 32.0 °F 87% 30.31 in 10.0 mi NNE 5.8 mph - N/A   Unknown
1:35 AM 37.4 °F 33.8 °F 32.0 °F 81% 30.31 in 10.0 mi North 4.6 mph - N/A   Unknown
1:55 AM 37.4 °F 32.8 °F 32.0 °F 81% 30.31 in 10.0 mi North 5.8 mph - N/A   Unknown
3:15 AM 37.4 °F 33.8 °F 32.0 °F 81% 30.31 in 10.0 mi NNE 4.6 mph - N/A   Unknown
3:30 AM 37.4 °F 33.8 °F 32.0 °F 81% 30.30 in 10.0 mi NNE 4.6 mph - N/A   Unknown
3:55 AM 37.4 °F 34.9 °F 32.0 °F 81% 30.30 in 10.0 mi North 3.5 mph - N/A   Unknown
4:15 AM 37.4 °F - 32.0 °F 81% 30.30 in 10.0 mi Calm Calm - N/A   Unknown
4:35 AM 37.4 °F 32.8 °F 32.0 °F 81% 30.30 in 10.0 mi North 5.8 mph - N/A   Unknown
4:55 AM 37.4 °F 33.8 °F 32.0 °F 81% 30.30 in 10.0 mi NNE 4.6 mph - N/A   Unknown
5:15 AM 37.4 °F 32.8 °F 30.2 °F 75% 30.30 in 10.0 mi North 5.8 mph - N/A   Unknown
5:35 AM 37.4 °F 32.1 °F 30.2 °F 75% 30.30 in 10.0 mi North 6.9 mph - N/A   Unknown
5:55 AM 37.4 °F 32.1 °F 30.2 °F 75% 30.30 in 10.0 mi North 6.9 mph - N/A   Unknown
6:15 AM 37.4 °F 32.1 °F 30.2 °F 75% 30.32 in 10.0 mi NNE 6.9 mph - N/A   Unknown
6:35 AM 37.4 °F 32.8 °F 30.2 °F 75% 30.32 in 10.0 mi NNE 5.8 mph - N/A   Unknown
6:55 AM 37.4 °F 34.9 °F 32.0 °F 81% 30.32 in 10.0 mi NNE 3.5 mph - N/A   Unknown
7:15 AM 37.4 °F - 32.0 °F 81% 30.33 in 10.0 mi Calm Calm - N/A   Unknown
7:35 AM 39.2 °F 37.0 °F 32.0 °F 75% 30.33 in 10.0 mi NNE 3.5 mph - N/A   Unknown
7:55 AM 39.2 °F - 32.0 °F 75% 30.33 in 10.0 mi Calm Calm - N/A   Unknown
8:15 AM 39.2 °F - 32.0 °F 75% 30.34 in 10.0 mi Calm Calm - N/A   Unknown
8:35 AM 39.2 °F 35.9 °F 32.0 °F 75% 30.33 in 10.0 mi North 4.6 mph - N/A   Unknown
8:55 AM 39.2 °F 35.9 °F 32.0 °F 75% 30.33 in 10.0 mi North 4.6 mph - N/A   Unknown
9:15 AM 41.0 °F 39.0 °F 32.0 °F 70% 30.33 in 10.0 mi NNE 3.5 mph - N/A   Unknown
9:35 AM 41.0 °F 38.0 °F 32.0 °F 70% 30.33 in 10.0 mi North 4.6 mph - N/A   Unknown
9:55 AM 42.8 °F 38.6 °F 32.0 °F 66% 30.33 in 10.0 mi NNE 6.9 mph - N/A   Unknown
10:15 AM 44.6 °F 42.2 °F 32.0 °F 61% 30.34 in 10.0 mi North 4.6 mph - N/A   Unknown
10:35 AM 44.6 °F - 32.0 °F 61% 30.34 in 10.0 mi Calm Calm - N/A   Unknown
10:55 AM 46.4 °F 43.5 °F 32.0 °F 57% 30.35 in 10.0 mi North 5.8 mph - N/A   Unknown
11:15 AM 46.4 °F 43.5 °F 32.0 °F 57% 30.35 in 10.0 mi North 5.8 mph - N/A   Unknown
11:35 AM 48.2 °F - 32.0 °F 54% 30.34 in 10.0 mi NE 4.6 mph - N/A   Unknown
11:50 AM 48.2 °F - 32.0 °F 54% 30.34 in 10.0 mi Calm Calm - N/A   Unknown
12:15 PM 50.0 °F - 33.8 °F 54% 30.33 in 10.0 mi Calm Calm - N/A   Unknown
12:35 PM 51.8 °F - 33.8 °F 50% 30.32 in 10.0 mi WNW 3.5 mph - N/A   Unknown
12:55 PM 51.8 °F - 33.8 °F 50% 30.31 in 10.0 mi NW 3.5 mph - N/A   Unknown
1:15 PM 53.6 °F - 33.8 °F 47% 30.30 in 10.0 mi Calm Calm - N/A   Unknown
1:35 PM 53.6 °F - 35.6 °F 51% 30.29 in 10.0 mi North 4.6 mph - N/A   Unknown
1:55 PM 55.4 °F - 35.6 °F 47% 30.27 in 10.0 mi NE 4.6 mph - N/A   Unknown
2:15 PM 55.4 °F - 35.6 °F 47% 30.26 in 10.0 mi North 3.5 mph - N/A   Unknown
2:35 PM 57.2 °F - 35.6 °F 44% 30.25 in 10.0 mi North 4.6 mph - N/A   Unknown
2:55 PM 57.2 °F - 35.6 °F 44% 30.24 in 10.0 mi Calm Calm - N/A   Unknown
3:15 PM 59.0 °F - 35.6 °F 42% 30.22 in 10.0 mi NW 3.5 mph - N/A   Unknown
3:35 PM 59.0 °F - 35.6 °F 42% 30.22 in 10.0 mi Calm Calm - N/A   Unknown
3:55 PM 60.8 °F - 35.6 °F 39% 30.21 in 10.0 mi Calm Calm - N/A   Unknown
4:15 PM 60.8 °F - 35.6 °F 39% 30.20 in 10.0 mi Calm Calm - N/A   Unknown
4:35 PM 60.8 °F - 35.6 °F 39% 30.19 in 10.0 mi Calm Calm - N/A   Unknown
4:55 PM 60.8 °F - 35.6 °F 39% 30.19 in 10.0 mi West 4.6 mph - N/A   Unknown
5:15 PM 60.8 °F - 35.6 °F 39% 30.19 in 10.0 mi West 5.8 mph - N/A   Unknown
5:35 PM 60.8 °F - 35.6 °F 39% 30.18 in 10.0 mi Calm Calm - N/A   Unknown
5:55 PM 60.8 °F - 35.6 °F 39% 30.17 in 10.0 mi Calm Calm - N/A   Unknown
6:15 PM 60.8 °F - 33.8 °F 36% 30.17 in 10.0 mi WNW 5.8 mph - N/A   Unknown
6:35 PM 60.8 °F - 35.6 °F 39% 30.17 in 10.0 mi West 4.6 mph - N/A   Unknown
6:55 PM 59.0 °F - 35.6 °F 42% 30.17 in 10.0 mi Calm Calm - N/A   Unknown
7:15 PM 59.0 °F - 35.6 °F 42% 30.17 in 10.0 mi Calm Calm - N/A   Unknown
7:35 PM 55.4 °F - 35.6 °F 47% 30.17 in 10.0 mi Calm Calm - N/A   Unknown
7:55 PM 53.6 °F - 35.6 °F 51% 30.17 in 10.0 mi Calm Calm - N/A   Unknown
8:15 PM 53.6 °F - 35.6 °F 51% 30.17 in 10.0 mi Calm Calm - N/A   Unknown
8:35 PM 51.8 °F - 35.6 °F 54% 30.17 in 10.0 mi Calm Calm - N/A   Unknown
8:55 PM 51.8 °F - 35.6 °F 54% 30.18 in 10.0 mi Calm Calm - N/A   Unknown
9:15 PM 50.0 °F - 35.6 °F 58% 30.18 in 10.0 mi Calm Calm - N/A   Unknown
9:35 PM 48.2 °F - 35.6 °F 62% 30.19 in 10.0 mi Calm Calm - N/A   Unknown
9:55 PM 46.4 °F - 35.6 °F 66% 30.18 in 10.0 mi Calm Calm - N/A   Unknown
10:15 PM 46.4 °F - 35.6 °F 66% 30.19 in 10.0 mi Calm Calm - N/A   Unknown
10:35 PM 46.4 °F - 35.6 °F 66% 30.18 in 10.0 mi Calm Calm - N/A   Unknown
10:55 PM 42.8 °F - 35.6 °F 76% 30.18 in 10.0 mi Calm Calm - N/A   Unknown
11:15 PM 41.0 °F - 33.8 °F 76% 30.18 in 10.0 mi Calm Calm - N/A   Unknown
11:35 PM 41.0 °F - 33.8 °F 76% 30.18 in 10.0 mi Calm Calm - N/A   Unknown
11:55 PM 42.8 °F - 35.6 °F 76% 30.17 in 10.0 mi Calm Calm - N/A   Unknown
12:15 AM 42.8 °F - 35.6 °F 76% 30.17 in 10.0 mi Calm Calm - N/A   Unknown
12:35 AM 41.0 °F - 35.6 °F 81% 30.16 in 10.0 mi Calm Calm - N/A   Unknown
12:50 AM 41.0 °F - 37.4 °F 87% 30.15 in 10.0 mi Calm Calm - N/A   Unknown